Location: ???????????
(54.6970°N, 39.1477°E)
Time: 13:22:24
(UTC+00:00)

Cosmos 1821 Rocket - Pass Details

Date: 19 May 2025
Orbit: 943 x 1004 km, 82.9° (Epoch: 18 June)

Event Time Altitude Azimuth Distance (km) Brightness Sun altitude
Rises 18:41:28 0° 349° (N) 3,650 8.3 -8.1°
Reaches altitude 10° 18:44:02 10° 354° (N) 2,693 7.4 -8.3°
Maximum altitude 18:50:06 59° 74° (ENE) 1,087 4.2 -8.8°
Enters shadow 18:55:50 11° 153° (SSE) 2,568 5.5 -9.3°
